Regional Weather Roundup
Issued by NWS

Home | Current Version | Previous Version | Graphics & Text | Print | Product List | Glossary On
Versions: 1 2 3 4 5 6 7 8 9 10 11 12 13 14 15 16 17 18 19 20 21 22 23 24 25 26 27 28 29 30 31 32 33 34 35 36 37 38 39 40 41 42 43 44 45 46 47 48 49 50
000
ASUS43 KMKX 270100
RWRWI

WISCONSIN REGIONAL WEATHER ROUNDUP
NATIONAL WEATHER SERVICE MILWAUKEE/SULLIVAN WI
800 PM CDT THU MAY 26 2016

NOTE: "FAIR" INDICATES FEW OR NO CLOUDS BELOW 12,000 FEET WITH NO
SIGNIFICANT WEATHER AND/OR OBSTRUCTIONS TO VISIBILITY.

WIZ001-002-006>008-014>016-023>028-270200-
NORTHWEST WISCONSIN

CITY           SKY/WX    TMP DP  RH WIND       PRES   REMARKS
SUPERIOR ARPT  CLOUDY    48  47  97 N3        29.82R
ASHLAND        CLEAR     56  55  97 NW8       29.83R
HAYWARD        PTCLDY    75  50  41 SW6       29.82R
SIREN          CLOUDY    75  49  40 SW6       29.83R
CUMBERLAND     CLOUDY    72  52  49 SW9       29.84R
RICE LAKE      CLOUDY    75  51  41 CALM      29.84R
CHETEK         CLOUDY    74  51  44 W3        29.84R
LADYSMITH      CLOUDY    74  55  52 SW3       29.85R
EAU CLAIRE     NOT AVBL
MENOMONIE      CLOUDY    76  52  42 SW8       29.84R
NEW RICHMOND   CLOUDY    73  52  47 W5        29.84S
OSCEOLA        CLOUDY    74  55  51 SW6       29.85S
$$

WIZ003>005-009-010-017-018-270200-
NORTH CENTRAL WISCONSIN

CITY           SKY/WX    TMP DP  RH WIND       PRES   REMARKS
MANITOWISH WTR NOT AVBL
ARBOR VITAE    PTCLDY    72  59  64 SW7       29.84R
WOODRUFF       PTCLDY    72  59  64 SW7       29.84R
RHINELANDER    CLOUDY    72  57  59 SW6       29.86R
EAGLE RIVER      N/A     71  58  64 S5        29.84R
LAND O LAKES   CLOUDY    70  60  70 CALM      29.85R
PHILLIPS       CLOUDY    72  59  64 S7        29.83R
TOMAHAWK       CLOUDY    72  57  59 SW3       29.85R
MEDFORD        MOCLDY    73  57  59 SW3       29.85R
MERRILL        CLOUDY    73  59  60 SW8       29.85R
$$

WIZ029-030-035-036-043>047-270200-
CENTRAL WISCONSIN

CITY           SKY/WX    TMP DP  RH WIND       PRES   REMARKS
WAUSAU         CLOUDY    74  58  57 CALM      29.84R
MOSINEE        PTCLDY    72  61  68 W3        29.87R
MARSHFIELD     CLOUDY    73  57  57 W5        29.85R
STEVENS POINT  CLOUDY    74  58  57 CALM      29.86R
WAUPACA        PTCLDY    77  58  51 W5        29.84R
WAUTOMA        PTCLDY    72  64  76 CALM      29.86R
WISC RAPIDS    CLOUDY    72  59  63 CALM      29.86R
CAMP DOUGLAS   NOT AVBL
$$

WIZ011>013-019>022-031-037>040-048>050-270200-
NORTHEAST WISCONSIN

CITY           SKY/WX    TMP DP  RH WIND       PRES   REMARKS
ANTIGO         CLOUDY    70  59  68 SW7       29.87R
SHAWANO        CLEAR     77  57  50 CALM      29.84R
OCONTO         CLEAR     66  66 100 SE5       29.84R
STURGEON BAY   NOT AVBL
GREEN BAY      CLOUDY    76  58  53 W3        29.84R
MANITOWOC      NOT AVBL
APPLETON       MOCLDY    72  55  56 W3        29.84R
CLINTONVILLE   CLOUDY    75  54  46 CALM      29.83R
OSHKOSH        CLEAR     76  57  51 CALM      29.85R
$$

WIZ032>034-041-042-053>061-270200-
SOUTHWEST WISCONSIN

CITY           SKY/WX    TMP DP  RH WIND       PRES   REMARKS
LA CROSSE      CLOUDY    76  60  57 CALM      29.83R
SPARTA         CLOUDY    76  57  53 CALM      29.85R
VIROQUA        CLOUDY    74  61  65 SW5       29.87R
BOSCOBEL       CLOUDY    76  63  64 CALM      29.87R
PRAIRIE DU CHI CLOUDY    76  63  64 CALM      29.85R
PLATTEVILLE    CLOUDY    77  58  50 NW3       29.87R
$$

WIZ056-057-062-063-064-067-068-270200-
SOUTH CENTRAL WISCONSIN

CITY           SKY/WX    TMP DP  RH WIND       PRES   REMARKS
REEDSBURG      PTCLDY    75  59  57 SW3       29.85R
BARABOO/DELLS  PTCLDY    76  56  50 CALM      29.86R
LONE ROCK      NOT AVBL
MINERAL POINT  CLOUDY    77  52  41 CALM      29.88R
MADISON        MOCLDY    74  56  53 CALM      29.86R
MIDDLETON      PTCLDY    78  55  44 W3        29.87R
WATERTOWN      CLEAR     79  57  45 CALM      29.85R HX  80
MONROE         CLOUDY    79  54  41 NW5       29.86R
JANESVILLE     MOCLDY    79  55  44 CALM      29.85R
$$

WIZ051-052-058>065-066-070>072-270200-
SOUTHEAST WISCONSIN

CITY           SKY/WX    TMP DP  RH WIND       PRES   REMARKS
MILWAUKEE      MOCLDY    82  54  37 W5        29.86R HX  81
WAUKESHA       CLEAR     75  55  50 SW3       29.87R
MILWAUKEE/TIMM CLEAR     79  52  38 W3        29.86R
RACINE         CLEAR     73  59  61 SE5       29.87R
BURLINGTON     PTCLDY    78  56  47 W3        29.86R
KENOSHA        CLEAR     78  62  57 S3        29.86R HX  80
FOND DU LAC    CLEAR     76  57  51 W5        29.86R
SHEBOYGAN      CLEAR     72  60  66 SE6       29.86R
WEST BEND      CLEAR     79  54  41 CALM      29.85R
JUNEAU         CLEAR     77  57  50 CALM      29.87R
$$

LSZ147-162-270200-
LAKE SUPERIOR

STATION/POSITION TIME  TEMP    WIND        PRES    WAVE
                       AIR SEA DIR/SP/G            HT/PER
                 (UTC) (F)     (DEG/KT/KT) (MB)    (FT/S)
W MID LAKE BUOY  2250   40 38  320/  4/  6 1010.0F   1/ 4
DEVILS ISLAND    0000   44      90/  6/  7 1008.6F
PORT WING        0000   48      50/  2/ 16 1008.8
SAXON HARBOR     0000   49      50/  3/  9 1008.5
$$

LMZ867-665-643>646-270200-
LAKE MICHIGAN

STATION/POSITION TIME  TEMP    WIND        PRES    WAVE
                       AIR SEA DIR/SP/G            HT/PER
                 (UTC) (F)     (DEG/KT/KT) (MB)    (FT/S)
CHAMBERS ISLAND  0000   62      80/  7/ 11 1009.5R
N MID LAKE BUOY  2250   48 45  250/  6/  8 1010.0R   2/ 4
NORTHPORT PIER   0000   59     140/  3/  5 1009.5R
SISTER BAY       0020   70     120/  7/  8   N/A
ALGOMA LAKESHORE 0017           80/  8/ 10   N/A
KEWAUNEE LAKESHO 0000                      1008.9R
SHEBOYGAN LAKESH 0000   60     170/ 16/ 17 1010.3R
PORT WASHINGTON  0000          140/  2/  4 1011.2
S MID LAKE BUOY  2250   57 50  140/  8/  8 1009.7F   0
KENOSHA   LAKESH 0000   63     170/ 11/ 12 1009.8R
$$

TC  - TEMPERATURE IN CELSIUS
VSB - VISIBILITY IN STATUTE MILES
WCI - WIND CHILL INDEX
HX  - HEAT INDEX





USA.gov is the U.S. government's official web portal to all federal, state and local government web resources and services.